EW2082 Weather Reports


Display with metric or nautical units.
time (UTC)temp
F
wind
direction
speed
MPH
gust
MPH
rain 1hr
in
rain 24hr
in
rain mn
in
humidity
%
barometer
mb
20260507151004 67 28 0.0 0.0 0.00 0.00 0.00 75 1015.3
20260507150005 67 28 0.0 0.0 0.00 0.00 0.00 77 1015.3
20260507145005 65 28 0.0 0.0 0.00 0.00 0.00 83 1015.2
20260507144004 64 28 0.0 0.0 0.00 0.00 0.00 83 1015.2
20260507141004 57 5 0.0 0.0 0.00 0.00 0.00 93 1015.0
20260507135005 55 5 0.0 0.0 0.00 0.00 0.00 93 1014.7
20260507134004 55 5 0.0 0.0 0.00 0.00 0.00 93 1014.6
20260507133005 54 5 0.0 0.0 0.00 0.00 0.00 93 1014.4
20260507132005 54 5 0.0 0.0 0.00 0.00 0.00 93 1014.5
20260507130006 54 5 0.0 0.0 0.00 0.00 0.00 92 1014.4
20260507124004 54 5 0.0 0.0 0.00 0.00 0.00 92 1014.3
20260507123004 54 5 0.0 0.0 0.00 0.00 0.00 92 1014.3
20260507122005 54 5 0.0 0.0 0.00 0.00 0.00 92 1014.3
20260507121004 54 5 0.0 0.0 0.00 0.00 0.00 92 1014.4
20260507120006 54 5 0.0 0.0 0.00 0.00 0.00 92 1014.4
20260507115005 54 5 0.0 0.0 0.00 0.00 0.00 92 1014.5
20260507114004 54 5 0.0 0.0 0.00 0.00 0.00 92 1014.6
20260507113005 54 5 0.0 0.0 0.00 0.00 0.00 92 1014.5
20260507112005 54 5 0.0 0.0 0.00 0.00 0.00 92 1014.6
20260507111005 55 5 0.0 0.0 0.00 0.00 0.00 92 1014.7
20260507105004 56 5 0.0 0.0 0.00 0.00 0.00 92 1014.9
20260507104004 56 5 0.0 0.0 0.00 0.00 0.00 92 1014.9
20260507103005 56 5 0.0 0.0 0.00 0.00 0.00 92 1014.9
20260507102006 56 5 0.0 0.0 0.00 0.00 0.00 92 1015.0
20260507101004 56 5 0.0 0.0 0.00 0.00 0.00 92 1015.0
20260507100005 56 5 0.0 0.0 0.00 0.00 0.00 91 1014.9
20260507093005 58 5 0.0 0.0 0.00 0.00 0.00 91 1015.2
20260507092005 58 5 0.0 0.0 0.00 0.00 0.00 90 1015.3
20260507091004 58 5 0.0 0.0 0.00 0.00 0.00 90 1015.4
20260507090005 58 5 0.0 0.0 0.00 0.00 0.00 90 1015.5
20260507085004 58 5 0.0 0.0 0.00 0.00 0.00 89 1015.5
20260507084004 58 5 0.0 0.0 0.00 0.00 0.00 88 1015.5
20260507083004 59 5 0.0 0.0 0.00 0.00 0.00 88 1015.5
20260507081003 59 5 0.0 0.0 0.00 0.00 0.00 87 1015.7
20260507075004 59 8 0.0 0.0 0.00 0.00 0.00 86 1015.9
20260507073004 59 233 0.0 0.0 0.00 0.00 0.00 89 1016.0
20260507072004 59 258 0.0 0.0 0.00 0.00 0.00 89 1016.1
20260507070010 59 258 0.0 1.0 0.00 0.00 0.00 90 1016.0
20260507065004 59 258 0.0 1.0 0.00 0.00 0.00 89 1016.0
20260507064004 60 258 0.0 1.0 0.00 0.00 0.00 89 1016.1
20260507063004 60 339 0.0 0.0 0.00 0.00 0.00 89 1016.2
20260507062004 60 339 0.0 0.0 0.00 0.00 0.00 89 1016.3
20260507061004 60 339 0.0 0.0 0.00 0.00 0.00 88 1016.2
20260507060004 60 339 0.0 1.0 0.00 0.00 0.00 88 1016.3
20260507055004 60 89 0.0 0.0 0.00 0.00 0.00 88 1016.1
20260507053005 60 82 0.0 1.0 0.00 0.00 0.00 86 1016.2
20260507052005 61 271 0.0 1.0 0.00 0.00 0.00 85 1016.2
20260507051003 61 253 0.0 0.0 0.00 0.00 0.00 84 1016.2
20260507050006 61 253 0.0 1.0 0.00 0.00 0.00 83 1016.1
20260507045005 61 254 0.0 2.0 0.00 0.00 0.00 83 1016.1
20260507044005 61 32 1.0 3.0 0.00 0.00 0.00 85 1016.1
20260507042005 61 303 1.0 4.0 0.00 0.00 0.00 86 1015.9
20260507041004 61 257 1.0 3.0 0.00 0.00 0.00 85 1015.8
20260507040005 61 281 0.0 1.0 0.00 0.00 0.00 85 1015.8
20260507035005 62 218 0.0 1.0 0.00 0.00 0.00 85 1015.6
20260507034005 62 357 0.0 2.0 0.00 0.00 0.00 84 1015.4
20260507033006 62 219 0.0 2.0 0.00 0.00 0.00 85 1015.3
20260507032004 62 267 0.0 4.0 0.00 0.00 0.00 84 1015.3
20260507030005 63 18 0.0 1.0 0.00 0.00 0.00 81 1015.0
20260507025004 63 257 0.0 2.0 0.00 0.00 0.00 78 1015.1
20260507024005 64 16 0.0 3.0 0.00 0.00 0.00 75 1014.8
20260507023004 64 329 0.0 3.0 0.00 0.00 0.00 72 1014.9
20260507021004 65 78 0.0 2.0 0.00 0.00 0.00 74 1014.8
20260507020005 66 15 0.0 3.0 0.00 0.00 0.00 71 1014.6
20260507015004 68 353 0.0 1.0 0.00 0.00 0.00 68 1014.6
20260507014005 68 286 0.0 2.0 0.00 0.00 0.00 68 1014.6
20260507013005 68 41 0.0 2.0 0.00 0.00 0.00 67 1014.5
20260507012004 68 32 0.0 5.0 0.00 0.00 0.00 64 1014.4
20260507011004 69 335 0.0 5.0 0.00 0.00 0.00 65 1014.4
20260507010006 69 32 0.0 6.0 0.00 0.00 0.00 65 1014.4
20260507005005 69 17 2.0 4.0 0.00 0.00 0.00 64 1014.3
20260507004005 69 30 0.0 4.0 0.00 0.00 0.00 65 1014.4
20260507003005 70 9 1.0 5.0 0.00 0.00 0.00 65 1014.4
20260507002004 70 291 0.0 6.0 0.00 0.00 0.00 65 1014.3
20260507001004 70 323 0.0 6.0 0.00 0.00 0.00 64 1014.3
20260507000004 70 280 4.0 8.0 0.00 0.00 0.00 64 1014.4
20260506235004 71 292 4.0 9.0 0.00 0.00 0.00 66 1014.4
20260506234004 72 278 5.0 8.0 0.00 0.00 0.00 61 1014.4
20260506233004 73 13 1.0 6.0 0.00 0.00 0.00 61 1014.4
20260506232004 73 46 1.0 5.0 0.00 0.00 0.00 60 1014.4
20260506231004 73 32 0.0 4.0 0.00 0.00 0.00 60 1014.5
20260506230004 73 79 0.0 6.0 0.00 0.00 0.00 60 1014.5
20260506224004 74 11 0.0 5.0 0.00 0.00 0.00 57 1014.8
20260506223004 75 34 0.0 4.0 0.00 0.00 0.00 57 1014.8
20260506221004 76 262 1.0 4.0 0.00 0.00 0.00 54 1015.0
20260506220005 76 80 0.0 5.0 0.00 0.00 0.00 55 1015.1
20260506215004 76 48 0.0 5.0 0.00 0.00 0.00 56 1015.3
20260506214004 76 25 0.0 5.0 0.00 0.00 0.00 54 1015.4
20260506213003 76 43 0.0 3.0 0.00 0.00 0.00 52 1015.5
20260506212004 77 66 1.0 2.0 0.00 0.00 0.00 51 1015.6
20260506211004 76 4 0.0 2.0 0.00 0.00 0.00 47 1015.6
20260506210004 76 174 3.0 4.0 0.00 0.00 0.00 45 1015.8
20260506205004 77 182 1.0 5.0 0.00 0.00 0.00 45 1015.7
20260506204004 76 186 2.0 6.0 0.00 0.00 0.00 47 1015.9
20260506203004 76 127 2.0 4.0 0.00 0.00 0.00 46 1016.0
20260506202003 77 210 3.0 5.0 0.00 0.00 0.00 48 1016.1
20260506201004 76 215 0.0 4.0 0.00 0.00 0.00 49 1016.2
20260506195004 76 212 0.0 4.0 0.00 0.00 0.00 49 1016.3
20260506193004 75 158 2.0 5.0 0.00 0.00 0.00 52 1016.4
20260506192004 75 230 0.0 7.0 0.00 0.00 0.00 54 1016.5
20260506191004 76 191 0.0 4.0 0.00 0.00 0.00 53 1016.7
20260506190006 76 89 0.0 3.0 0.00 0.00 0.00 53 1016.8
20260506185003 76 181 0.0 5.0 0.00 0.00 0.00 56 1016.8
20260506184003 75 167 0.0 2.0 0.00 0.00 0.00 54 1017.1
20260506183004 74 66 0.0 5.0 0.00 0.00 0.00 54 1017.0
20260506182004 73 213 0.0 3.0 0.00 0.00 0.00 56 1017.1
20260506181005 73 180 0.0 2.0 0.00 0.00 0.00 55 1017.1
20260506180005 73 155 0.0 2.0 0.00 0.00 0.00 54 1017.2
20260506174004 73 156 1.0 3.0 0.00 0.00 0.00 55 1017.1
20260506173003 72 211 0.0 3.0 0.00 0.00 0.00 57 1017.3
20260506171004 71 107 0.0 4.0 0.00 0.00 0.00 59 1017.2
20260506170003 71 82 0.0 3.0 0.00 0.00 0.00 60 1017.1
20260506164003 71 138 0.0 2.0 0.00 0.00 0.00 60 1017.2
20260506163004 70 184 0.0 3.0 0.00 0.00 0.00 63 1017.1
20260506161004 68 200 0.0 2.0 0.00 0.00 0.00 62 1017.2
20260506160005 69 156 0.0 2.0 0.00 0.00 0.00 65 1017.1
20260506155004 68 71 0.0 1.0 0.00 0.00 0.00 66 1016.9
20260506154005 68 54 0.0 3.0 0.00 0.00 0.00 69 1017.0
20260506152004 68 63 0.0 1.0 0.00 0.00 0.00 69 1017.0